<?xml version="1.0" encoding="UTF-8"?>
<gpx
version="1.1"
creator="Kashmir3D 9.310 - http://www.kashmir3d.com"
xmlns:xsi="http://www.w3.org/2001/XMLSchema-instance"
xmlns="http://www.topografix.com/GPX/1/1"
xmlns:kashmir3d="http://www.kashmir3d.com/namespace/kashmir3d"
xsi:schemaLocation="http://www.topografix.com/GPX/1/1 http://www.topografix.com/GPX/1/1/gpx.xsd
	http://www.kashmir3d.com/namespace/kashmir3d http://www.kashmir3d.com/namespace/kashmir3d.xsd">
<trk>
 <name>武田山</name>
 <number>1</number>
 <extensions>
 <kashmir3d:line_color>0000ff</kashmir3d:line_color>
 <kashmir3d:line_size>3</kashmir3d:line_size>
 <kashmir3d:line_style>1</kashmir3d:line_style>
 <kashmir3d:icon>901001</kashmir3d:icon>
 </extensions>
<trkseg>
<trkpt lat="34.449549" lon="132.450667">
 <ele>122.7</ele>
 <time>2020-03-24T14:48:18Z</time>
</trkpt>
<trkpt lat="34.449618" lon="132.450785">
 <ele>123.4</ele>
 <time>2020-03-24T14:48:18Z</time>
</trkpt>
<trkpt lat="34.449695" lon="132.450892">
 <ele>125</ele>
 <time>2020-03-24T14:48:18Z</time>
</trkpt>
<trkpt lat="34.449815" lon="132.450935">
 <ele>130.3</ele>
 <time>2020-03-24T14:48:19Z</time>
</trkpt>
<trkpt lat="34.449935" lon="132.451032">
 <ele>133.6</ele>
 <time>2020-03-24T14:48:19Z</time>
</trkpt>
<trkpt lat="34.449970" lon="132.451096">
 <ele>135</ele>
 <time>2020-03-24T14:48:19Z</time>
</trkpt>
<trkpt lat="34.450038" lon="132.451214">
 <ele>138.5</ele>
 <time>2020-03-24T14:48:19Z</time>
</trkpt>
<trkpt lat="34.450038" lon="132.451279">
 <ele>138.3</ele>
 <time>2020-03-24T14:48:19Z</time>
</trkpt>
<trkpt lat="34.450133" lon="132.451343">
 <ele>144.6</ele>
 <time>2020-03-24T14:48:19Z</time>
</trkpt>
<trkpt lat="34.450253" lon="132.451472">
 <ele>150</ele>
 <time>2020-03-24T14:48:19Z</time>
</trkpt>
<trkpt lat="34.450364" lon="132.451557">
 <ele>153.1</ele>
 <time>2020-03-24T14:48:19Z</time>
</trkpt>
<trkpt lat="34.450424" lon="132.451622">
 <ele>154.4</ele>
 <time>2020-03-24T14:48:19Z</time>
</trkpt>
<trkpt lat="34.450536" lon="132.451718">
 <ele>159.9</ele>
 <time>2020-03-24T14:48:19Z</time>
</trkpt>
<trkpt lat="34.450691" lon="132.451718">
 <ele>169.1</ele>
 <time>2020-03-24T14:48:20Z</time>
</trkpt>
<trkpt lat="34.451000" lon="132.451633">
 <ele>177.9</ele>
 <time>2020-03-24T14:48:20Z</time>
</trkpt>
<trkpt lat="34.451145" lon="132.451579">
 <ele>178.2</ele>
 <time>2020-03-24T14:48:20Z</time>
</trkpt>
<trkpt lat="34.451291" lon="132.451536">
 <ele>181.6</ele>
 <time>2020-03-24T14:48:20Z</time>
</trkpt>
<trkpt lat="34.451403" lon="132.451536">
 <ele>180.8</ele>
 <time>2020-03-24T14:48:20Z</time>
</trkpt>
<trkpt lat="34.451386" lon="132.451675">
 <ele>183.8</ele>
 <time>2020-03-24T14:48:20Z</time>
</trkpt>
<trkpt lat="34.451377" lon="132.451751">
 <ele>187.6</ele>
 <time>2020-03-24T14:48:20Z</time>
</trkpt>
<trkpt lat="34.451429" lon="132.451901">
 <ele>189.6</ele>
 <time>2020-03-24T14:48:20Z</time>
</trkpt>
<trkpt lat="34.451678" lon="132.452083">
 <ele>184</ele>
 <time>2020-03-24T14:48:20Z</time>
</trkpt>
<trkpt lat="34.451798" lon="132.452083">
 <ele>185.5</ele>
 <time>2020-03-24T14:48:20Z</time>
</trkpt>
<trkpt lat="34.451944" lon="132.452115">
 <ele>197.9</ele>
 <time>2020-03-24T14:48:21Z</time>
</trkpt>
<trkpt lat="34.452029" lon="132.452115">
 <ele>202.5</ele>
 <time>2020-03-24T14:48:21Z</time>
</trkpt>
<trkpt lat="34.452175" lon="132.452019">
 <ele>204.1</ele>
 <time>2020-03-24T14:48:21Z</time>
</trkpt>
<trkpt lat="34.452364" lon="132.451954">
 <ele>196.4</ele>
 <time>2020-03-24T14:48:21Z</time>
</trkpt>
<trkpt lat="34.452476" lon="132.451912">
 <ele>199.3</ele>
 <time>2020-03-24T14:48:21Z</time>
</trkpt>
<trkpt lat="34.452613" lon="132.451869">
 <ele>200.4</ele>
 <time>2020-03-24T14:48:21Z</time>
</trkpt>
<trkpt lat="34.452690" lon="132.451933">
 <ele>203</ele>
 <time>2020-03-24T14:48:21Z</time>
</trkpt>
<trkpt lat="34.452690" lon="132.452030">
 <ele>204.1</ele>
 <time>2020-03-24T14:48:21Z</time>
</trkpt>
<trkpt lat="34.452682" lon="132.452105">
 <ele>206.9</ele>
 <time>2020-03-24T14:48:21Z</time>
</trkpt>
<trkpt lat="34.452673" lon="132.452201">
 <ele>205.9</ele>
 <time>2020-03-24T14:48:22Z</time>
</trkpt>
<trkpt lat="34.452690" lon="132.452276">
 <ele>206.7</ele>
 <time>2020-03-24T14:48:22Z</time>
</trkpt>
<trkpt lat="34.452802" lon="132.452362">
 <ele>207.9</ele>
 <time>2020-03-24T14:48:22Z</time>
</trkpt>
<trkpt lat="34.452871" lon="132.452405">
 <ele>207.5</ele>
 <time>2020-03-24T14:48:22Z</time>
</trkpt>
<trkpt lat="34.452896" lon="132.452351">
 <ele>209.2</ele>
 <time>2020-03-24T14:48:22Z</time>
</trkpt>
<trkpt lat="34.452862" lon="132.452233">
 <ele>215.8</ele>
 <time>2020-03-24T14:48:22Z</time>
</trkpt>
<trkpt lat="34.452896" lon="132.452148">
 <ele>220.1</ele>
 <time>2020-03-24T14:48:22Z</time>
</trkpt>
<trkpt lat="34.452948" lon="132.452008">
 <ele>222.9</ele>
 <time>2020-03-24T14:48:22Z</time>
</trkpt>
<trkpt lat="34.452982" lon="132.451933">
 <ele>225.3</ele>
 <time>2020-03-24T14:48:22Z</time>
</trkpt>
<trkpt lat="34.453025" lon="132.451879">
 <ele>227.8</ele>
 <time>2020-03-24T14:48:22Z</time>
</trkpt>
<trkpt lat="34.453042" lon="132.451772">
 <ele>232.9</ele>
 <time>2020-03-24T14:48:23Z</time>
</trkpt>
<trkpt lat="34.453077" lon="132.451611">
 <ele>239.2</ele>
 <time>2020-03-24T14:48:23Z</time>
</trkpt>
<trkpt lat="34.453085" lon="132.451504">
 <ele>244.9</ele>
 <time>2020-03-24T14:48:23Z</time>
</trkpt>
<trkpt lat="34.453094" lon="132.451386">
 <ele>248.9</ele>
 <time>2020-03-24T14:48:23Z</time>
</trkpt>
<trkpt lat="34.453102" lon="132.451268">
 <ele>249.5</ele>
 <time>2020-03-24T14:48:23Z</time>
</trkpt>
<trkpt lat="34.453137" lon="132.451128">
 <ele>255.9</ele>
 <time>2020-03-24T14:48:23Z</time>
</trkpt>
<trkpt lat="34.453162" lon="132.451032">
 <ele>259.6</ele>
 <time>2020-03-24T14:48:23Z</time>
</trkpt>
<trkpt lat="34.453188" lon="132.450957">
 <ele>261.6</ele>
 <time>2020-03-24T14:48:23Z</time>
</trkpt>
<trkpt lat="34.453240" lon="132.450892">
 <ele>261.6</ele>
 <time>2020-03-24T14:48:23Z</time>
</trkpt>
<trkpt lat="34.453283" lon="132.450828">
 <ele>261</ele>
 <time>2020-03-24T14:48:24Z</time>
</trkpt>
<trkpt lat="34.453334" lon="132.450742">
 <ele>259.7</ele>
 <time>2020-03-24T14:48:24Z</time>
</trkpt>
<trkpt lat="34.453368" lon="132.450667">
 <ele>258.1</ele>
 <time>2020-03-24T14:48:24Z</time>
</trkpt>
<trkpt lat="34.453420" lon="132.450560">
 <ele>258.9</ele>
 <time>2020-03-24T14:48:24Z</time>
</trkpt>
<trkpt lat="34.453471" lon="132.450463">
 <ele>261.8</ele>
 <time>2020-03-24T14:48:24Z</time>
</trkpt>
<trkpt lat="34.453557" lon="132.450334">
 <ele>266.4</ele>
 <time>2020-03-24T14:48:24Z</time>
</trkpt>
<trkpt lat="34.453609" lon="132.450216">
 <ele>273.1</ele>
 <time>2020-03-24T14:48:24Z</time>
</trkpt>
<trkpt lat="34.453712" lon="132.450152">
 <ele>280.1</ele>
 <time>2020-03-24T14:48:24Z</time>
</trkpt>
<trkpt lat="34.453729" lon="132.449980">
 <ele>286.3</ele>
 <time>2020-03-24T14:48:24Z</time>
</trkpt>
<trkpt lat="34.453823" lon="132.449884">
 <ele>293.4</ele>
 <time>2020-03-24T14:48:25Z</time>
</trkpt>
<trkpt lat="34.453875" lon="132.449798">
 <ele>296.5</ele>
 <time>2020-03-24T14:48:25Z</time>
</trkpt>
<trkpt lat="34.453918" lon="132.449766">
 <ele>299.3</ele>
 <time>2020-03-24T14:48:25Z</time>
</trkpt>
<trkpt lat="34.453935" lon="132.449701">
 <ele>301.2</ele>
 <time>2020-03-24T14:48:25Z</time>
</trkpt>
<trkpt lat="34.454046" lon="132.449583">
 <ele>310.6</ele>
 <time>2020-03-24T14:48:25Z</time>
</trkpt>
<trkpt lat="34.454124" lon="132.449540">
 <ele>315.3</ele>
 <time>2020-03-24T14:48:25Z</time>
</trkpt>
<trkpt lat="34.454158" lon="132.449476">
 <ele>318.2</ele>
 <time>2020-03-24T14:48:25Z</time>
</trkpt>
<trkpt lat="34.454244" lon="132.449444">
 <ele>324.6</ele>
 <time>2020-03-24T14:48:25Z</time>
</trkpt>
<trkpt lat="34.454304" lon="132.449401">
 <ele>327.6</ele>
 <time>2020-03-24T14:48:25Z</time>
</trkpt>
<trkpt lat="34.454347" lon="132.449294">
 <ele>331.4</ele>
 <time>2020-03-24T14:48:25Z</time>
</trkpt>
<trkpt lat="34.454416" lon="132.449154">
 <ele>332.9</ele>
 <time>2020-03-24T14:48:26Z</time>
</trkpt>
<trkpt lat="34.454467" lon="132.449068">
 <ele>334.7</ele>
 <time>2020-03-24T14:48:26Z</time>
</trkpt>
<trkpt lat="34.454553" lon="132.448972">
 <ele>338.1</ele>
 <time>2020-03-24T14:48:26Z</time>
</trkpt>
<trkpt lat="34.454656" lon="132.448875">
 <ele>342</ele>
 <time>2020-03-24T14:48:26Z</time>
</trkpt>
<trkpt lat="34.454776" lon="132.448843">
 <ele>347.1</ele>
 <time>2020-03-24T14:48:26Z</time>
</trkpt>
<trkpt lat="34.454862" lon="132.448811">
 <ele>350.9</ele>
 <time>2020-03-24T14:48:26Z</time>
</trkpt>
<trkpt lat="34.454948" lon="132.448789">
 <ele>355.2</ele>
 <time>2020-03-24T14:48:26Z</time>
</trkpt>
<trkpt lat="34.455034" lon="132.448789">
 <ele>358.8</ele>
 <time>2020-03-24T14:48:26Z</time>
</trkpt>
<trkpt lat="34.455102" lon="132.448779">
 <ele>363.2</ele>
 <time>2020-03-24T14:48:26Z</time>
</trkpt>
<trkpt lat="34.455291" lon="132.448682">
 <ele>371.6</ele>
 <time>2020-03-24T14:48:27Z</time>
</trkpt>
<trkpt lat="34.455403" lon="132.448639">
 <ele>375</ele>
 <time>2020-03-24T14:48:27Z</time>
</trkpt>
<trkpt lat="34.455454" lon="132.448618">
 <ele>378</ele>
 <time>2020-03-24T14:48:27Z</time>
</trkpt>
<trkpt lat="34.455523" lon="132.448607">
 <ele>382.3</ele>
 <time>2020-03-24T14:48:27Z</time>
</trkpt>
<trkpt lat="34.455600" lon="132.448553">
 <ele>386.7</ele>
 <time>2020-03-24T14:48:27Z</time>
</trkpt>
<trkpt lat="34.455660" lon="132.448510">
 <ele>391.2</ele>
 <time>2020-03-24T14:48:27Z</time>
</trkpt>
<trkpt lat="34.455763" lon="132.448489">
 <ele>394.7</ele>
 <time>2020-03-24T14:48:27Z</time>
</trkpt>
<trkpt lat="34.455875" lon="132.448521">
 <ele>399.1</ele>
 <time>2020-03-24T14:48:27Z</time>
</trkpt>
<trkpt lat="34.456003" lon="132.448525">
 <ele>406.4</ele>
 <time>2020-03-24T14:48:27Z</time>
</trkpt>
<trkpt lat="34.455858" lon="132.448543">
 <ele>397.1</ele>
 <time>2020-03-24T14:48:27Z</time>
</trkpt>
<trkpt lat="34.455772" lon="132.448468">
 <ele>395.2</ele>
 <time>2020-03-24T14:48:28Z</time>
</trkpt>
<trkpt lat="34.455669" lon="132.448521">
 <ele>389.4</ele>
 <time>2020-03-24T14:48:28Z</time>
</trkpt>
<trkpt lat="34.455626" lon="132.448543">
 <ele>387.8</ele>
 <time>2020-03-24T14:48:28Z</time>
</trkpt>
<trkpt lat="34.455514" lon="132.448596">
 <ele>384.2</ele>
 <time>2020-03-24T14:48:28Z</time>
</trkpt>
<trkpt lat="34.455437" lon="132.448607">
 <ele>376.4</ele>
 <time>2020-03-24T14:48:28Z</time>
</trkpt>
<trkpt lat="34.455360" lon="132.448661">
 <ele>373.2</ele>
 <time>2020-03-24T14:48:28Z</time>
</trkpt>
<trkpt lat="34.455300" lon="132.448682">
 <ele>372.2</ele>
 <time>2020-03-24T14:48:28Z</time>
</trkpt>
<trkpt lat="34.455197" lon="132.448736">
 <ele>370.4</ele>
 <time>2020-03-24T14:48:28Z</time>
</trkpt>
<trkpt lat="34.455094" lon="132.448779">
 <ele>363.2</ele>
 <time>2020-03-24T14:48:28Z</time>
</trkpt>
<trkpt lat="34.455016" lon="132.448789">
 <ele>358.8</ele>
 <time>2020-03-24T14:48:29Z</time>
</trkpt>
<trkpt lat="34.454973" lon="132.448800">
 <ele>355.2</ele>
 <time>2020-03-24T14:48:29Z</time>
</trkpt>
<trkpt lat="34.454888" lon="132.448800">
 <ele>352</ele>
 <time>2020-03-24T14:48:29Z</time>
</trkpt>
<trkpt lat="34.454793" lon="132.448811">
 <ele>349.9</ele>
 <time>2020-03-24T14:48:29Z</time>
</trkpt>
<trkpt lat="34.454742" lon="132.448832">
 <ele>346.7</ele>
 <time>2020-03-24T14:48:29Z</time>
</trkpt>
<trkpt lat="34.454630" lon="132.448875">
 <ele>342</ele>
 <time>2020-03-24T14:48:29Z</time>
</trkpt>
<trkpt lat="34.454536" lon="132.448961">
 <ele>338.1</ele>
 <time>2020-03-24T14:48:29Z</time>
</trkpt>
<trkpt lat="34.454484" lon="132.449068">
 <ele>335</ele>
 <time>2020-03-24T14:48:29Z</time>
</trkpt>
<trkpt lat="34.454433" lon="132.449143">
 <ele>332.9</ele>
 <time>2020-03-24T14:48:29Z</time>
</trkpt>
<trkpt lat="34.454364" lon="132.449229">
 <ele>331.9</ele>
 <time>2020-03-24T14:48:29Z</time>
</trkpt>
<trkpt lat="34.454321" lon="132.449294">
 <ele>331.6</ele>
 <time>2020-03-24T14:48:30Z</time>
</trkpt>
<trkpt lat="34.454304" lon="132.449358">
 <ele>329.8</ele>
 <time>2020-03-24T14:48:30Z</time>
</trkpt>
<trkpt lat="34.454235" lon="132.449444">
 <ele>323.3</ele>
 <time>2020-03-24T14:48:30Z</time>
</trkpt>
<trkpt lat="34.454175" lon="132.449498">
 <ele>320.2</ele>
 <time>2020-03-24T14:48:30Z</time>
</trkpt>
<trkpt lat="34.454124" lon="132.449540">
 <ele>315.3</ele>
 <time>2020-03-24T14:48:30Z</time>
</trkpt>
<trkpt lat="34.454046" lon="132.449616">
 <ele>309.1</ele>
 <time>2020-03-24T14:48:30Z</time>
</trkpt>
<trkpt lat="34.453969" lon="132.449648">
 <ele>304.6</ele>
 <time>2020-03-24T14:48:30Z</time>
</trkpt>
<trkpt lat="34.453883" lon="132.449798">
 <ele>297.9</ele>
 <time>2020-03-24T14:48:30Z</time>
</trkpt>
<trkpt lat="34.453841" lon="132.449852">
 <ele>293.4</ele>
 <time>2020-03-24T14:48:30Z</time>
</trkpt>
<trkpt lat="34.453772" lon="132.449937">
 <ele>288.7</ele>
 <time>2020-03-24T14:48:31Z</time>
</trkpt>
<trkpt lat="34.453755" lon="132.449970">
 <ele>288.7</ele>
 <time>2020-03-24T14:48:31Z</time>
</trkpt>
<trkpt lat="34.453720" lon="132.450141">
 <ele>282.4</ele>
 <time>2020-03-24T14:48:31Z</time>
</trkpt>
<trkpt lat="34.453600" lon="132.450206">
 <ele>273.1</ele>
 <time>2020-03-24T14:48:31Z</time>
</trkpt>
<trkpt lat="34.453557" lon="132.450313">
 <ele>267.2</ele>
 <time>2020-03-24T14:48:31Z</time>
</trkpt>
<trkpt lat="34.453489" lon="132.450431">
 <ele>263</ele>
 <time>2020-03-24T14:48:31Z</time>
</trkpt>
<trkpt lat="34.453429" lon="132.450549">
 <ele>258.8</ele>
 <time>2020-03-24T14:48:31Z</time>
</trkpt>
<trkpt lat="34.453368" lon="132.450463">
 <ele>258</ele>
 <time>2020-03-24T14:48:31Z</time>
</trkpt>
<trkpt lat="34.453317" lon="132.450442">
 <ele>254.3</ele>
 <time>2020-03-24T14:48:31Z</time>
</trkpt>
<trkpt lat="34.453248" lon="132.450399">
 <ele>245.6</ele>
 <time>2020-03-24T14:48:31Z</time>
</trkpt>
<trkpt lat="34.453137" lon="132.450302">
 <ele>230.9</ele>
 <time>2020-03-24T14:48:32Z</time>
</trkpt>
<trkpt lat="34.453042" lon="132.450216">
 <ele>224.7</ele>
 <time>2020-03-24T14:48:32Z</time>
</trkpt>
<trkpt lat="34.452956" lon="132.450077">
 <ele>217.1</ele>
 <time>2020-03-24T14:48:32Z</time>
</trkpt>
<trkpt lat="34.452888" lon="132.449980">
 <ele>213</ele>
 <time>2020-03-24T14:48:32Z</time>
</trkpt>
<trkpt lat="34.452828" lon="132.449937">
 <ele>210.5</ele>
 <time>2020-03-24T14:48:32Z</time>
</trkpt>
<trkpt lat="34.452776" lon="132.449862">
 <ele>206.5</ele>
 <time>2020-03-24T14:48:32Z</time>
</trkpt>
<trkpt lat="34.452716" lon="132.449787">
 <ele>205.8</ele>
 <time>2020-03-24T14:48:32Z</time>
</trkpt>
<trkpt lat="34.452647" lon="132.449680">
 <ele>202.2</ele>
 <time>2020-03-24T14:48:32Z</time>
</trkpt>
<trkpt lat="34.452579" lon="132.449626">
 <ele>197.7</ele>
 <time>2020-03-24T14:48:32Z</time>
</trkpt>
<trkpt lat="34.452502" lon="132.449583">
 <ele>192.5</ele>
 <time>2020-03-24T14:48:33Z</time>
</trkpt>
<trkpt lat="34.452390" lon="132.449583">
 <ele>187.9</ele>
 <time>2020-03-24T14:48:33Z</time>
</trkpt>
<trkpt lat="34.452296" lon="132.449562">
 <ele>186</ele>
 <time>2020-03-24T14:48:33Z</time>
</trkpt>
<trkpt lat="34.452193" lon="132.449573">
 <ele>182.6</ele>
 <time>2020-03-24T14:48:33Z</time>
</trkpt>
<trkpt lat="34.452124" lon="132.449551">
 <ele>181.3</ele>
 <time>2020-03-24T14:48:33Z</time>
</trkpt>
<trkpt lat="34.452064" lon="132.449540">
 <ele>177.5</ele>
 <time>2020-03-24T14:48:33Z</time>
</trkpt>
<trkpt lat="34.451969" lon="132.449540">
 <ele>175.1</ele>
 <time>2020-03-24T14:48:33Z</time>
</trkpt>
<trkpt lat="34.451884" lon="132.449551">
 <ele>174.7</ele>
 <time>2020-03-24T14:48:33Z</time>
</trkpt>
<trkpt lat="34.451789" lon="132.449562">
 <ele>170.8</ele>
 <time>2020-03-24T14:48:33Z</time>
</trkpt>
<trkpt lat="34.451669" lon="132.449583">
 <ele>167.5</ele>
 <time>2020-03-24T14:48:33Z</time>
</trkpt>
<trkpt lat="34.451617" lon="132.449583">
 <ele>166.4</ele>
 <time>2020-03-24T14:48:34Z</time>
</trkpt>
<trkpt lat="34.451549" lon="132.449583">
 <ele>164.2</ele>
 <time>2020-03-24T14:48:34Z</time>
</trkpt>
<trkpt lat="34.451489" lon="132.449616">
 <ele>163.4</ele>
 <time>2020-03-24T14:48:34Z</time>
</trkpt>
<trkpt lat="34.451369" lon="132.449626">
 <ele>160.7</ele>
 <time>2020-03-24T14:48:34Z</time>
</trkpt>
<trkpt lat="34.451274" lon="132.449637">
 <ele>160.4</ele>
 <time>2020-03-24T14:48:34Z</time>
</trkpt>
<trkpt lat="34.451068" lon="132.449648">
 <ele>158.2</ele>
 <time>2020-03-24T14:48:34Z</time>
</trkpt>
<trkpt lat="34.450939" lon="132.449658">
 <ele>155.9</ele>
 <time>2020-03-24T14:48:34Z</time>
</trkpt>
<trkpt lat="34.450811" lon="132.449701">
 <ele>155.4</ele>
 <time>2020-03-24T14:48:34Z</time>
</trkpt>
<trkpt lat="34.450682" lon="132.449744">
 <ele>151.3</ele>
 <time>2020-03-24T14:48:34Z</time>
</trkpt>
<trkpt lat="34.450545" lon="132.449841">
 <ele>146.6</ele>
 <time>2020-03-24T14:48:35Z</time>
</trkpt>
<trkpt lat="34.450459" lon="132.449884">
 <ele>144.2</ele>
 <time>2020-03-24T14:48:35Z</time>
</trkpt>
<trkpt lat="34.450382" lon="132.449895">
 <ele>141.9</ele>
 <time>2020-03-24T14:48:35Z</time>
</trkpt>
<trkpt lat="34.450321" lon="132.449905">
 <ele>138.2</ele>
 <time>2020-03-24T14:48:35Z</time>
</trkpt>
<trkpt lat="34.450210" lon="132.449970">
 <ele>135.3</ele>
 <time>2020-03-24T14:48:35Z</time>
</trkpt>
<trkpt lat="34.450098" lon="132.450066">
 <ele>135.8</ele>
 <time>2020-03-24T14:48:35Z</time>
</trkpt>
<trkpt lat="34.450012" lon="132.450141">
 <ele>131</ele>
 <time>2020-03-24T14:48:35Z</time>
</trkpt>
<trkpt lat="34.449875" lon="132.450334">
 <ele>127.3</ele>
 <time>2020-03-24T14:48:35Z</time>
</trkpt>
<trkpt lat="34.449806" lon="132.450452">
 <ele>126.1</ele>
 <time>2020-03-24T14:48:35Z</time>
</trkpt>
<trkpt lat="34.449781" lon="132.450517">
 <ele>126.3</ele>
 <time>2020-03-24T14:48:35Z</time>
</trkpt>
<trkpt lat="34.449695" lon="132.450624">
 <ele>124.4</ele>
 <time>2020-03-24T14:48:36Z</time>
</trkpt>
<trkpt lat="34.449626" lon="132.450646">
 <ele>123.5</ele>
 <time>2020-03-24T14:48:36Z</time>
</trkpt>
<trkpt lat="34.449566" lon="132.450646">
 <ele>123.3</ele>
 <time>2020-03-24T14:48:36Z</time>
</trkpt>
</trkseg>
</trk>
</gpx>

